Satellite-Ground Cal/Val Region Overpasses Predictions

Prediction of Satellite NPP Overpassing Cal/Val Region: PacNW

Region Location: (Latitude: 10.00, Longitude: 139.50) to (Latitude: 22.70, Longitude: 165.60).

Table of predicted overpasses for the next 14.0 days since TLE Epoch: 5/16/2020
Interval Starting Time Starting Location Ending Time Ending Location
1 05/17/2020 02:19:57 ( 10.05, 164.65) 05/17/2020 02:23:32 ( 22.68, 161.64)
2 05/17/2020 14:51:50 ( 22.66, 161.89) 05/17/2020 14:55:25 ( 10.04, 158.89)
3 05/18/2020 03:42:25 ( 10.03, 144.04) 05/18/2020 03:46:00 ( 22.66, 141.03)
4 05/18/2020 14:34:02 ( 18.34, 165.59) 05/18/2020 14:36:24 ( 10.01, 163.64)
5 05/18/2020 16:14:18 ( 22.68, 141.28) 05/18/2020 16:16:22 ( 15.40, 139.51)
6 05/19/2020 03:23:22 ( 10.01, 148.80) 05/19/2020 03:26:58 ( 22.69, 145.78)
7 05/19/2020 15:55:16 ( 22.65, 146.03) 05/19/2020 15:58:51 ( 10.03, 143.03)
8 05/20/2020 03:04:21 ( 10.04, 153.55) 05/20/2020 03:07:56 ( 22.67, 150.55)
9 05/20/2020 15:36:14 ( 22.67, 150.79) 05/20/2020 15:39:49 ( 10.05, 147.79)
10 05/21/2020 02:45:18 ( 10.02, 158.32) 05/21/2020 02:48:54 ( 22.70, 155.30)
11 05/21/2020 15:17:11 ( 22.70, 155.56) 05/21/2020 15:20:47 ( 10.02, 152.54)
12 05/22/2020 02:26:17 ( 10.05, 163.07) 05/22/2020 02:29:52 ( 22.67, 160.06)
13 05/22/2020 14:58:10 ( 22.66, 160.31) 05/22/2020 15:01:45 ( 10.04, 157.31)
14 05/23/2020 02:09:57 ( 19.54, 165.60) 05/23/2020 02:10:50 ( 22.65, 164.83)
15 05/23/2020 03:48:44 ( 10.03, 142.46) 05/23/2020 03:52:15 ( 22.42, 139.51)
16 05/23/2020 14:39:07 ( 22.69, 165.08) 05/23/2020 14:42:43 ( 10.01, 162.06)
17 05/23/2020 16:20:37 ( 22.68, 139.70) 05/23/2020 16:20:50 ( 21.92, 139.51)
18 05/24/2020 03:29:42 ( 10.01, 147.22) 05/24/2020 03:33:18 ( 22.69, 144.20)
19 05/24/2020 16:01:36 ( 22.65, 144.45) 05/24/2020 16:05:11 ( 10.03, 141.45)
20 05/25/2020 03:10:41 ( 10.04, 151.97) 05/25/2020 03:14:16 ( 22.67, 148.97)
21 05/25/2020 15:42:33 ( 22.67, 149.22) 05/25/2020 15:46:08 ( 10.05, 146.21)
22 05/26/2020 02:51:38 ( 10.02, 156.74) 05/26/2020 02:55:13 ( 22.64, 153.73)
23 05/26/2020 15:23:31 ( 22.70, 153.98) 05/26/2020 15:27:07 ( 10.02, 150.96)
24 05/27/2020 02:32:37 ( 10.06, 161.49) 05/27/2020 02:36:12 ( 22.68, 158.48)
25 05/27/2020 15:04:29 ( 22.66, 158.73) 05/27/2020 15:08:04 ( 10.04, 155.73)
26 05/28/2020 02:14:23 ( 12.91, 165.59) 05/28/2020 02:17:09 ( 22.66, 163.25)
27 05/28/2020 03:55:04 ( 10.04, 140.88) 05/28/2020 03:56:45 ( 15.97, 139.50)
28 05/28/2020 14:45:27 ( 22.69, 163.50) 05/28/2020 14:49:03 ( 10.01, 160.48)
29 05/29/2020 03:36:02 ( 10.02, 145.64) 05/29/2020 03:39:38 ( 22.70, 142.62)
30 05/29/2020 14:29:34 ( 11.56, 165.59) 05/29/2020 14:30:00 ( 10.03, 165.24)
31 05/29/2020 16:07:55 ( 22.65, 142.87) 05/29/2020 16:11:30 ( 10.03, 139.87)
32 05/30/2020 03:17:00 ( 10.05, 150.39) 05/30/2020 03:20:35 ( 22.68, 147.39)


NCC Satellite Cal/Val Overpasses Prediction Service
